Starlink 4103

operational
NORAD ID: 53141 Int'l Des: 2022-083 Owner: SPXS Country: US Constellation: starlink
LEOCIRCULAR

About Starlink 4103

Description loading...

Live Position

Loading 3D Globe...

Upcoming Passes

Altitude History

Altitude vs Time

uPlot chart will show altitude changes over time

Two-Line Element Set

1 53141U 22083K 25342.83009590 .00000694 00000-0 61671-4 0 9993
2 53141 53.2173 222.0048 0001401 93.3987 266.7166 15.08833713187504
Epoch: Dec 8, 2025 • Age: 8 hours

Current Status

Altitude 552.8 km
Velocity 7.58 km/s
Sub-Earth Point -37.72°S, 52.54°E
Launch Date Jul 17, 2022
Age 3.3 years
Type internet

Technical Details

Classification Payload
Mass 297.00 kg
Dry Mass 275.00 kg
Total Mass 297.00 kg
Length 0.20 m
Diameter 2.80 m
Span 9.00 m
Shape Box + pan
Manufacturer SPXS
Bus Type Starlink
Phase Status In Orbit
Owner/State SPXS/US

Large Constellations

Loading constellations...